This demonstration page uses our WeatherBlox Daily Observations layout. Learn more.

Left ArrowRight Arrow

36.19886, -115.1175

Hourly Observations for October 20, 2021

Temp ( °F °C ) Dew Point ( °F °C ) Humidity (%) Winds ( mph kmh ) Pressure ( in mb ) Visibility ( mi km ) Precip ( " mm )
12:53 am 00:53 Clear 53 11.7 27 -2.8 37 37 WNW 6 9 30.09 1019 10 16 N/A
1:53 am 01:53 Clear 52 11.1 27 -2.8 38 38 WNW 5 7 30.09 1019 10 16 N/A
2:53 am 02:53 Clear 50 10 28 -2.2 43 43 NW 7 11 30.10 1019 10 16 N/A
3:53 am 03:53 Clear 50 10 27 -2.8 41 41 NW 6 9 30.09 1019 10 16 N/A
4:53 am 04:53 Clear 49 9.4 27 -2.8 43 43 N N/A 30.09 1019 10 16 N/A
5:53 am 05:53 Clear 49 9.4 25 -3.9 39 39 NW 6 9 30.12 1020 10 16 N/A
6:53 am 06:53 Sunny 49 9.4 26 -3.3 41 41 NW 8 13 30.14 1021 10 16 N/A
7:53 am 07:53 Sunny 55 12.8 27 -2.8 34 34 NW 7 11 30.16 1021 10 16 N/A
8:53 am 08:53 Sunny 61 16.1 28 -2.2 29 29 N N/A 30.18 1022 10 16 N/A
9:53 am 09:53 Sunny 63 17.2 28 -2.2 27 27 N N/A 30.20 1023 10 16 N/A
10:53 am 10:53 Sunny 65 18.3 27 -2.8 24 24 N N/A 30.19 1022 10 16 N/A
11:53 am 11:53 Sunny 68 20 27 -2.8 21 21 ESE 5 7 30.18 1022 10 16 N/A
12:53 pm 12:53 Sunny 70 21.1 26 -3.3 19 19 E 5 7 30.16 1021 10 16 N/A
1:53 pm 13:53 Sunny 73 22.8 27 -2.8 18 18 SE 7 11 30.13 1020 10 16 N/A
2:53 pm 14:53 Sunny 73 22.8 29 -1.7 19 19 SSE 6 9 30.11 1020 10 16 N/A
3:53 pm 15:53 Sunny 73 22.8 29 -1.7 19 19 N N/A 30.09 1019 10 16 N/A
4:53 pm 16:53 Sunny 73 22.8 29 -1.7 19 19 E 3 6 30.09 1019 10 16 N/A
5:53 pm 17:53 Sunny 72 22.2 29 -1.7 20 20 N N/A 30.09 1019 10 16 N/A
6:53 pm 18:53 Clear 71 21.7 31 -0.6 23 23 N N/A 30.11 1020 10 16 N/A
7:53 pm 19:53 Clear 67 19.4 33 0.6 28 28 W 3 6 30.13 1020 10 16 N/A
8:53 pm 20:53 Clear 64 17.8 33 0.6 32 32 W 6 9 30.14 1021 10 16 N/A
9:53 pm 21:53 Clear 61 16.1 32 undefined 34 34 NW 6 9 30.14 1021 10 16 N/A
10:53 pm 22:53 Clear 60 15.6 32 undefined 35 35 WNW 6 9 30.15 1021 10 16 N/A
11:53 pm 23:53 Clear 58 14.4 33 0.6 39 39 NW 5 7 30.15 1021 10 16 N/A

Powered by AerisWeather